Simultaneous Nadir Overpasses (SNOs) Predictions

Prediction of SNOs between GOES-16 and METOP-B Satellite Orbit:

Table of predicted SNOs for the next 14.0 days since TLE Epoch: 1/31/2020
Index Date Time (GOES-16) GOES-16 Lat,Lon METOP-B Lat,Lon Distance(km) Time Diff (sec)
1 02/01/2020 14:31:42 -0.00, -75.21 0.09, -75.65 50.37 80
2 02/04/2020 02:32:45 0.01, -75.20 0.03, -75.26 6.75 80
3 02/06/2020 14:30:58 -0.01, -75.22 -0.10, -74.82 44.86 80
4 02/08/2020 02:47:19 0.02, -75.21 -0.92, -79.42 479.47 80
5 02/09/2020 02:29:20 0.01, -75.22 0.17, -74.42 90.25 80
6 02/10/2020 14:45:32 -0.02, -75.23 0.85, -78.98 427.71 80
7 02/11/2020 14:27:33 -0.01, -75.24 -0.30, -73.99 142.44 80
8 02/13/2020 02:43:55 0.02, -75.25 -0.71, -78.59 380.64 80
9 02/14/2020 02:25:55 0.01, -75.26 0.38, -73.59 189.84 80




NCC Satellite Simultaneous Nadir Overpasses (SNOs) Prediction Service
